Location: Newark
(9.4667°S, 159.8167°E)
Time: 09:51:46
(UTC+00:00)

Vanguard 1 - Pass Details

Date: 22 November 2019
Orbit: 651 x 3832 km, 34.3° (Epoch: 15 December)

Event Time Altitude Azimuth Distance (km) Brightness Sun altitude
Rises 09:30:03 0° 281° (W) 3,792 13.8 -29.0°
Reaches altitude 10° 09:32:21 10° 273° (W) 3,099 13.3 -29.5°
Maximum altitude 09:39:49 44° 202° (SSW) 2,231 12.0 -31.1°
Drops below altitude 10° 09:53:21 10° 134° (SE) 5,475 13.7 -34.0°
Sets 09:59:05 0° 128° (SE) 6,995 14.3 -35.2°
